TIME,DELAY(SENSOR),PRES,T(CTD),SAL,OXYGEN,RAWTEMP,T(OPTODE),TCPHASE,FLUOR,BETA(BETA700),BETA(BETA412),BETA(BETA440),CDOM,C(CSC),ED(ED411.90),ED(ED443.80),ED(ED489.40),ED(ED554.70),LU(LU412.20),LU(LU443.80),LU(LU489.40),LU(LU555.00),COMP,TILTX,TILTX(TILTY),CHECK
1345302860,5805,497.8200073242187500,17.2530994415283200,36.4149017333984400,225.5753021240234400,179.9281005859375000,17.2534999847412100,31.5347404479980470,50,100,98,80,67,13987,2146952301,2147509860,2147270262,2147466578,2147087789,2146950692,2147661293,2147122742,428,-2,8,65483
1345302994,5806,486.1700134277344000,17.4169006347656250,36.4471015930175800,228.3029937744140600,174.7472991943359400,17.4097805023193360,31.3261909484863280,50,102,97,79,67,13985,2146956397,2147512164,2147267529,2147469540,2147086811,2146953545,2147653659,2147121280,465,-2,8,49294
1345303115,5807,475.3999938964844000,17.4874992370605470,36.4616012573242200,230.1269989013672000,172.2575988769531200,17.4848899841308600,31.2014598846435550,51,99,98,79,68,13987,2146954340,2147514038,2147267510,2147466349,2147087588,2146954185,2147657252,2147116461,648,-2,8,29438
1345303236,5806,464.4200134277344000,17.5618991851806640,36.4757003784179700,231.6051940917968800,169.8515930175781200,17.5574893951416000,31.0956897735595700,50,100,99,80,67,13988,2146955126,2147512402,2147269165,2147467885,2147085586,2146953508,2147658148,2147124388,791,-2,8,22219
1345303359,5806,453.0499877929687500,17.6481990814209000,36.4956016540527340,234.7160949707031200,167.0211029052734400,17.6429004669189450,30.9056491851806640,51,103,98,81,66,13984,2146951826,2147516498,2147268013,2147463963,2147089078,2146951853,2147656237,2147127533,763,-2,8,61082
1345303480,5805,441.7300109863281000,17.6826992034912100,36.4995994567871100,234.2312011718750000,165.7505950927734400,17.6812496185302730,30.9118804931640620,50,101,99,81,66,13985,2146954733,2147507730,2147267602,2147461010,2147090541,2146951277,2147653504,2147121389,847,-2,8,61209
1345303592,5807,431.1900024414062500,17.7698993682861330,36.5149002075195300,234.5549926757812500,162.8067932128906200,17.7700996398925780,30.8566093444824220,50,102,96,80,67,13985,2146953618,2147508672,2147268845,2147463734,2147084928,2146954340,2147651209,2147127936,976,-2,8,13408
1345303713,5807,419.7799987792969000,17.8390998840332030,36.5271987915039060,235.9696960449218800,160.6705932617187500,17.8345909118652340,30.7598495483398440,51,101,98,81,67,13985,2146949595,2147509814,2147269174,2147467163,2147085467,2146950134,2147655597,2147125659,1367,-2,8,13836
1345303823,5805,409.3999938964844000,17.8661003112792970,36.5336990356445300,236.5541992187500000,159.7667999267578000,17.8618793487548830,30.7195396423339840,50,101,99,80,67,13987,2146952146,2147513124,2147266285,2147463030,2147085988,2146953033,2147654582,2147129024,1591,-2,8,43791
1345303946,5808,397.9299926757812500,17.9141006469726560,36.5405998229980500,237.2223968505859400,158.2322998046875000,17.9082107543945300,30.6672401428222660,50,101,98,80,67,13986,2146952402,2147509357,2147268141,2147463478,2147086939,2146951780,2147655606,2147127972,1511,-2,8,60937
1345304067,5805,386.8299865722656000,17.9463996887207030,36.5466003417968750,237.3580932617187500,157.1154937744140600,17.9419307708740230,30.6457099914550780,50,100,98,80,67,13983,2146948370,2147513280,2147270491,2147463131,2147085604,2146955227,2147654180,2147124416,1623,-2,8,14090
1345304188,5805,376.0199890136719000,17.9934997558593750,36.5533981323242200,237.5065002441406200,155.5520019531250000,17.9891395568847660,30.6179008483886720,50,101,98,80,65,13985,2146952045,2147514834,2147271954,2147463506,2147090651,2146953225,2147652845,2147127296,1388,-2,8,32827
1345304311,5806,365.4599914550781000,18.0282993316650400,36.5583000183105500,236.8267059326172000,154.3229980468750000,18.0262603759765620,30.6337699890136720,50,101,98,80,66,13983,2146951698,2147511268,2147273472,2147458505,2147085147,2146958912,2147650203,2147126144,1315,-2,8,15548
1345304443,5803,354.6400146484375000,18.0746002197265620,36.5638008117675800,236.1885070800781200,152.8347930908203000,18.0712108612060550,30.6444091796875000,51,102,97,81,66,13981,2146954176,2147514413,2147272896,2147463076,2147085842,2146955894,2147656603,2147125824,1335,-2,8,18850
1345304577,5805,343.9800109863281000,18.1201000213623050,36.5690002441406250,236.0408020019531200,151.3576965332031200,18.1158199310302730,30.6319694519042970,50,100,99,80,66,13986,2146953024,2147514496,2147270930,2147461531,2147083209,2146956754,2147658121,2147124992,1414,-2,8,5845
1345304731,5804,332.3599853515625000,18.1875991821289060,36.5774002075195300,235.5816040039062500,149.0834960937500000,18.1845302581787100,30.6235103607177730,50,103,97,80,66,13982,2146950518,2147516086,2147277293,2147459126,2147088310,2146959076,2147659483,2147129737,1300,-2,8,50932
1345304885,5808,320.7600097656250000,18.2562007904052730,36.5850982666015600,235.3115997314453000,146.6045074462890600,18.2594299316406250,30.6034908294677730,51,101,98,81,66,13982,2146955337,2147513526,2147279533,2147459949,2147086189,2146960237,2147661988,2147128000,895,-2,8,36866
1345305017,5803,308.9100036621094000,18.3624000549316400,36.5955009460449200,233.9604034423828000,143.3377075195312500,18.3581504821777340,30.6251697540283200,51,103,98,81,66,13980,2146955282,2147515264,2147286976,2147461686,2147080118,2146960301,2147661540,2147123721,771,-2,8,56092
1345305138,5807,297.6300048828125000,18.4073009490966800,36.5988006591796900,232.7052001953125000,141.8592987060547000,18.4028396606445300,30.6663398742675780,50,103,97,81,66,13977,2146953261,2147519789,2147293750,2147460982,2147078573,2146955757,2147666258,2147124480,903,-2,8,49378
1345305261,5803,286.0000000000000000,18.4915008544921880,36.6073989868164060,231.4680938720703000,139.0471954345703000,18.4878501892089840,30.6890602111816400,50,103,98,82,67,13975,2146952228,2147523328,2147301677,2147459684,2147085211,2146959881,2147671250,2147126235,1088,-2,8,61612
1345305382,5806,274.6799926757812500,18.5909004211425780,36.6129989624023440,229.4165039062500000,135.6990966796875000,18.5890903472900400,30.7449703216552730,50,103,99,81,66,13973,2146954038,2147523328,2147319332,2147457581,2147085028,2146957193,2147677595,2147126025,960,-2,8,8497
1345305494,5806,264.0000000000000000,18.7000999450683600,36.6091003417968750,228.7989044189453000,132.0650024414062500,18.6990108489990230,30.7271995544433600,50,102,97,81,67,13977,2146954934,2147533760,2147336841,2147458596,2147082633,2146967890,2147690605,2147127177,1597,-2,8,9023
1345305604,5807,253.5899963378906200,18.7635993957519530,36.5940017700195300,232.5986022949218800,130.0915985107422000,18.7586994171142580,30.5148792266845700,51,100,99,80,66,13980,2146954422,2147538587,2147358034,2147457472,2147083675,2146979730,2147698861,2147126006,2023,-2,8,55116
1345305725,5808,242.1499938964843800,18.8227005004882800,36.5778999328613300,237.0337982177734400,127.7288970947265600,18.8301906585693360,30.2711906433105470,50,103,98,81,67,13979,2146954998,2147548498,2147390326,2147459117,2147079488,2146981001,2147720082,2147127689,1722,-2,8,57589
1345305837,5804,231.3899993896484400,18.9144992828369140,36.5779991149902340,239.1383972167968800,124.9013977050781200,18.9157695770263670,30.1351108551025400,50,101,98,80,67,13977,2146956562,2147565138,2147432009,2147458660,2147081152,2147000448,2147742372,2147128731,1214,-3,8,4590
1345305958,5803,219.8399963378906200,19.0002994537353500,36.5703010559082000,242.6517028808593800,122.1917037963867200,18.9978008270263670,29.9363193511962900,50,101,99,80,65,13979,2146959424,2147590070,2147499574,2147457115,2147087296,2147009252,2147774838,2147134272,1626,-2,8,42698
1345306068,5807,209.6999969482422000,19.1012001037597660,36.5704994201660160,245.1943969726562500,118.8320007324218800,19.0995292663574220,29.7765693664550780,51,102,99,82,66,13980,2146960420,2147614162,2147576749,2147456521,2147085750,2147034084,2147817344,2147132946,985,-2,8,31309
1345306191,5805,198.4199981689453000,19.1884994506835940,36.5704994201660160,248.6634979248047000,116.0542984008789000,19.1836605072021500,29.5844097137451170,50,102,98,81,65,13975,2146963666,2147659428,2147692114,2147456969,2147088694,2147063305,2147887817,2147138002,993,-2,8,57123
1345306246,5807,193.3899993896484400,19.2254009246826170,36.5719985961914060,248.6439971923828000,114.8783035278320300,19.2192897796630860,29.5700092315673830,51,103,96,80,65,13979,2146971264,2147687250,2147755428,2147456685,2147088978,2147083410,2147923620,2147138532,1098,-2,8,54379
1345306301,5807,188.5299987792968800,19.2469997406005860,36.5722999572753900,248.8309936523437500,114.0748977661132800,19.2436294555664060,29.5515098571777340,51,104,99,81,66,13972,2146974976,2147718171,2147840036,2147458358,2147090980,2147105645,2147970194,2147142281,658,-2,8,2956
1345306356,5807,183.7700042724609400,19.2656002044677730,36.5738983154296900,248.9017944335937500,113.4042968750000000,19.2639503479003900,29.5395202636718750,51,103,99,81,65,13975,2146980251,2147755803,2147932873,2147456539,2147098450,2147136393,2148019428,2147146285,43,-2,8,7579
1345306411,5807,178.8800048828125000,19.2975997924804700,36.5740013122558600,249.5957031250000000,112.4862976074218800,19.2917709350585940,29.4967594146728500,51,102,98,81,64,13974,2146986971,2147802230,2148028562,2147456045,2147105810,2147159981,2148069604,2147148315,244,-3,8,47846
1345306485,5805,172.5800018310547000,19.3202991485595700,36.5698013305664060,251.3327941894531200,111.6507034301757800,19.3170890808105470,29.4091205596923830,52,104,98,81,64,13976,2147005513,2147870848,2148207954,2147456356,2147115282,2147218505,2148178331,2147154386,3296,-2,8,13464
1345306540,5806,168.0500030517578000,19.3353996276855470,36.5667991638183600,251.6593017578125000,110.9885025024414000,19.3371601104736330,29.3862991333007800,56,107,99,81,64,13971,2147012781,2147917275,2148311488,2147458733,2147118738,2147251730,2148226898,2147156781,3268,-2,8,15085
1345306595,5805,163.4100036621093800,19.3857002258300780,36.5718002319335940,251.2490997314453000,109.5394973754882800,19.3810691833496100,29.3857097625732420,59,106,98,82,63,13967,2147029796,2148010889,2148533312,2147457865,2147126409,2147310454,2148348626,2147160749,3468,-2,8,44789
1345306650,5805,158.6999969482422000,19.4102001190185550,36.5745010375976560,252.0657043457031200,108.7073974609375000,19.4062995910644530,29.3391304016113280,57,107,99,83,64,13968,2147047698,2148096868,2148733202,2147457846,2147134098,2147373184,2148458642,2147169481,3223,-2,8,14683
1345306705,5805,153.9400024414062500,19.4342994689941400,36.5764999389648440,252.4920043945312500,107.9229965209961000,19.4300804138183600,29.3104190826416000,62,108,100,81,64,13963,2147074550,2148202523,2148974080,2147462125,2147153362,2147447122,2148585654,2147177965,3186,-3,8,34618
1345306760,5804,149.2299957275390600,19.4736003875732420,36.5834007263183600,251.9022064208984400,106.5634994506836000,19.4713001251220700,29.3188705444335940,64,110,99,82,63,13963,2147099501,2148326244,2149259995,2147464694,2147173805,2147530304,2148740845,2147186898,3057,-2,8,30048
1345306838,5803,143.2700042724609400,19.5072994232177730,36.5791015625000000,251.0847015380859400,105.5019989013671900,19.5034809112548830,29.3409404754638670,79,114,100,82,64,13949,2147147739,2148516589,2149647012,2147468699,2147201206,2147640722,2148934116,2147195913,1897,-3,9,53953
1345306904,5806,139.3500061035156200,19.5289001464843750,36.5722007751464840,250.9537963867187500,104.8610992431640600,19.5229206085205080,29.3383808135986330,92,117,99,81,65,13933,2147202934,2148695744,2150020918,2147472100,2147218953,2147728676,2149078317,2147207314,1415,-2,8,44800
1345306970,5808,135.3200073242187500,19.5858993530273440,36.5787010192871100,250.4347991943359400,102.7033996582031200,19.5883598327636720,29.3336105346679700,99,119,100,83,65,13927,2147275209,2148959131,2150548278,2147480694,2147248512,2147848521,2149285568,2147223917,1137,-3,8,46659
1345307036,5807,131.4900054931640600,19.6830997467041000,36.5943984985351560,249.8105926513672000,99.8488388061523400,19.6749591827392580,29.3242301940917970,107,118,100,81,64,13925,2147365558,2149267309,2151154267,2147488667,2147290185,2147982372,2149517632,2147239570,857,-2,8,1269
1345307113,5804,127.3300018310546900,19.7296009063720700,36.5940017700195300,249.6779937744140600,97.7102737426757800,19.7398605346679700,29.3027095794677730,113,121,100,82,65,13912,2147505810,2149701504,2151967753,2147501001,2147337069,2148149257,2149800475,2147261238,707,-2,8,63113
1345307191,5804,124.0000000000000000,19.7989006042480470,36.6094017028808600,250.1764068603515600,96.0244903564453100,19.7910308837890620,29.2590103149414060,119,124,101,83,65,13913,2147630464,2150088246,2152671277,2147512228,2147389494,2148293284,2150032502,2147282532,3400,-2,8,57966
1345307345,5805,120.3199996948242200,19.9197998046875000,36.6244010925293000,250.2951965332031200,93.3938903808593800,19.8708896636962900,29.2200794219970700,122,120,101,84,65,13899,2147838838,2150701440,2153833398,2147533842,2147470912,2148537408,2150450185,2147312000,2745,-2,8,61226
1345307531,5807,115.9300003051757800,20.0139007568359380,36.6347999572753900,249.7872924804687500,88.9683532714843800,20.0053005218505860,29.1859207153320300,127,121,99,82,67,13899,2147704329,2150015040,2152144914,2147514733,2147402066,2148113014,2149609316,2147265645,2946,-2,8,34109
1345307641,5806,112.1399993896484400,20.1079006195068360,36.6446990966796900,248.6602020263672000,85.7432327270507800,20.1032905578613280,29.1943092346191400,136,120,100,83,67,13892,2148312621,2151857664,2155613668,2147577590,2147638189,2148887533,2150936466,2147365924,2808,-2,8,35031
1345307773,5806,108.0299987792968800,20.2189998626709000,36.6441993713378900,249.9739074707031200,82.2717514038086000,20.2088203430175780,29.0919303894042970,141,123,101,85,67,13873,2149199972,2154246262,2159593910,2147658020,2147941668,2149735826,2152296521,2147476315,2405,-2,8,32180
1345307873,5805,103.5599975585937500,20.3267002105712900,36.6426010131835940,252.9546051025390600,78.4996337890625000,20.3235301971435550,28.9140701293945300,134,126,102,84,67,13860,2149407670,2154401801,2159149522,2147670573,2147995977,2149687497,2152027830,2147468589,3273,-2,8,44734
1345307950,5804,99.2699966430664000,20.4251003265380860,36.6286010742187500,255.3632965087890600,74.7393035888671900,20.4379291534423830,28.7628307342529300,159,131,103,84,66,13830,2151509165,2159812306,2167836379,2147897069,2148739355,2151620973,2154979437,2147725915,2877,-3,8,33570
1345308005,5804,96.2300033569336000,20.4752998352050780,36.6152000427246100,258.4182128906250000,73.3985290527343800,20.4787406921386720,28.6163902282714840,126,123,102,85,66,13848,2150080155,2155351149,2159398838,2147717056,2148237796,2149969746,2152073225,2147495670,2319,-2,9,56324
1345308060,5805,93.1600036621093800,20.5648002624511720,36.6185989379882800,261.0021972656250000,70.8304672241211000,20.5569190979003900,28.4759101867675780,115,121,102,84,66,13854,2151226825,2157866057,2162867657,2147828891,2148685366,2150995190,2153424640,2147621979,2204,-2,8,11972
1345308115,5804,90.0500030517578100,20.6180000305175780,36.6132011413574200,262.1646118164062500,68.9676666259765600,20.6136398315429700,28.4043407440185550,113,122,101,84,65,13852,2151874468,2158925074,2163837238,2147887387,2148963958,2151481865,2153903067,2147677851,2304,-3,9,17387
1345308172,5808,86.9400024414062500,20.6900005340576170,36.6147003173828100,263.2882995605469000,66.5478286743164000,20.6873493194580080,28.3276195526123050,107,120,103,85,65,13853,2152265929,2159376786,2164010240,2147925540,2149150116,2151749650,2154043318,2147699702,2670,-3,8,38912
1345308227,5805,84.2099990844726600,20.7339000701904300,36.6203994750976560,263.3890075683594000,65.0694732666015600,20.7323894500732420,28.3052501678466800,111,121,101,85,65,13855,2153522486,2161680777,2166689472,2148056630,2149672347,2152763446,2155164461,2147818697,2109,-2,9,64120
1345308282,5807,81.6699981689453100,20.9536991119384770,36.6428985595703100,261.2582092285156000,58.5451889038085940,20.9312801361084000,28.3111400604248050,111,119,102,85,66,13841,2153617965,2161312448,2165534107,2148049289,2149725366,2152672109,2154805019,2147797778,1818,-2,8,63386
1345308337,5805,79.7200012207031200,21.0128002166748050,36.6511993408203100,259.5144958496094000,56.2142410278320300,21.0023803710937500,28.3545703887939450,111,123,103,84,64,13841,2155657206,2165124891,2170190957,2148263826,2150542756,2154307190,2156763190,2147993216,1436,-3,9,41670
1345308392,5805,78.1800003051757800,21.0671997070312500,36.6521987915039060,258.7818908691406000,54.4267807006835940,21.0569190979003900,28.3628501892089840,103,122,103,84,64,13843,2155664018,2164529993,2168728804,2148232621,2150544283,2154069604,2156193115,2147948800,1227,-3,8,2435
1345308492,5807,75.4100036621093800,21.4442005157470700,36.6678009033203100,258.0313110351562500,43.6332206726074200,21.3865604400634770,28.2593593597412100,94,129,102,86,63,13836,2164692836,2181053412,2188774482,2149216219,2154246674,2161298322,2164600128,2148808292,898,-2,8,65442
1345308547,5803,73.4400024414062500,21.5893001556396500,36.6725006103515600,257.4150085449219000,38.8526382446289060,21.5327301025390620,28.2256908416748050,90,124,104,86,65,13829,2167332205,2184733110,2192128338,2149495451,2155396845,2163103954,2166140955,2148995565,1302,-2,8,39234
1345308602,5806,71.5299987792968800,21.7653007507324220,36.6972999572753900,257.0758972167969000,34.0870094299316400,21.6785507202148440,28.1804695129394530,89,125,103,84,63,13828,2174921773,2197861385,2207613138,2150436754,2158632630,2169088813,2172787309,2149713700,1454,-2,9,13917
1345308657,5805,69.8499984741211000,21.9489994049072270,36.7202987670898440,253.4974975585937500,26.6477909088134770,21.9064006805419920,28.2389297485351560,85,125,103,86,64,13821,2178399314,2202653586,2212141028,2150849353,2160253348,2171731858,2175218752,2149975323,1935,-3,9,16717
1345308723,5806,68.2600021362304700,21.9617004394531250,36.6964988708496100,253.1143035888672000,25.2792797088623050,21.9483509063720700,28.2381095886230470,82,123,102,87,64,13836,2181262674,2205801819,2214055350,2151089234,2161533778,2173468617,2176535588,2150153435,1695,-2,9,15382
1345308812,5804,65.9499969482421900,22.0076999664306640,36.6032981872558600,256.0757141113281000,22.6538906097412100,22.0288391113281250,28.0803909301757800,77,121,103,87,64,13836,2180968950,2202226587,2207337682,2150934765,2161835309,2172500745,2174077814,2149939840,1683,-2,9,31262
1345308867,5805,64.0299987792968800,22.3038005828857420,36.6003990173339840,258.4335937500000000,14.6879301071167000,22.2733097076416000,27.8833999633789060,77,123,104,86,61,13830,2192969636,2220808658,2227905709,2152632018,2167477851,2181647881,2183060361,2150989613,1637,-3,9,18704
1345308933,5803,62.3600006103515600,22.4080009460449220,36.5787010192871100,261.7690124511719000,11.0035295486450200,22.3864898681640620,27.7008304595947270,75,127,104,86,61,13825,2192549933,2218156004,2223186651,2152444809,2168207341,2181941860,2182490944,2150947913,1487,-3,9,55646
1345309065,5807,60.8499984741210940,22.5713005065917970,36.5954017639160160,263.0722961425781000,5.2894330024719240,22.5621700286865230,27.5778007507324220,73,126,105,87,59,13824,2203108013,2234651236,2241934070,2154212132,2173620251,2190676873,2191028736,2151981238,1730,-2,9,10363
1345309176,5806,59.4399986267089840,22.7917995452880860,36.5904006958007800,263.0851135253906000,-1.6447659730911255,22.7756099700927730,27.4922599792480470,70,129,105,87,61,13820,2202512713,2231480740,2236658825,2154111899,2174734848,2190892288,2189880100,2151858258,1320,-3,9,28276
1345309352,5805,57.8400001525878900,23.2206001281738280,36.6403007507324200,257.4486999511719000,-15.3865900039672850,23.1994304656982420,27.5544395446777340,68,128,103,86,63,13829,2210205440,2239866496,2243047030,2154919286,2179967972,2197025581,2193677842,2152301065,1900,-2,8,35418
1345309453,5804,55.7299995422363300,23.3180999755859380,36.6422004699707000,254.7789001464843800,-19.0863304138183600,23.3137302398681640,27.6200294494628900,66,123,104,86,61,13827,2211422610,2237222445,2237195099,2155018368,2182100233,2197925970,2192910582,2152329014,1011,-2,8,12289
1345309595,5804,49.5400009155273440,23.4846992492675780,36.6360015869140600,253.6381988525390600,-25.0813102722167970,23.4991207122802730,27.5943908691406250,63,125,104,86,61,13831,2246457481,2278869101,2276793316,2161716470,2204257910,2225630710,2214654802,2155385819,3322,-2,9,45324
1345309629,5806,48.1500015258789060,23.6606006622314450,36.5947990417480500,253.3419036865234400,-29.5336093902587900,23.6369495391845700,27.5522804260253900,64,126,104,85,60,13826,2247727588,2279224685,2276600466,2162173010,2205190125,2225653522,2213737590,2155359670,3572,-3,8,51663
1345309756,5804,46.8199996948242200,23.6984004974365230,36.5680007934570300,256.2991027832031000,-31.6343097686767580,23.7020206451416000,27.4034099578857420,62,128,107,86,60,13831,2260011126,2292492169,2287638774,2164220736,2218124845,2241287780,2226024576,2156894125,2383,-3,9,49664
1345309825,5804,44.2700004577636700,23.7264003753662100,36.5504989624023440,257.4206848144531000,-32.4732208251953100,23.7280197143554700,27.3468093872070300,61,125,104,85,57,13837,2290173010,2328350921,2322995849,2171858066,2239872402,2266272521,2244318829,2159853376,2564,-3,9,10627
1345309858,5803,42.5099983215332000,23.7534999847412100,36.5391006469726560,257.5744934082031000,-33.7763290405273440,23.7684097290039060,27.3246803283691400,60,127,103,87,57,13834,2298330349,2336262336,2329767405,2174661686,2247959634,2274612498,2249933650,2160814272,2941,-3,9,33121
1345309891,5806,40.7500000000000000,23.8491001129150400,36.5205001831054700,257.3284912109375000,-36.8577499389648440,23.8639602661132800,27.2973308563232420,59,126,105,87,60,13839,2307678948,2345882459,2338833206,2178043181,2256163446,2283255972,2256304502,2162029348,2772,-3,9,53599
1345309936,5805,38.6500015258789060,24.0370998382568360,36.4920005798339840,257.9844970703125000,-42.0193290710449200,24.0241603851318360,27.2076702117919920,58,125,104,87,58,13838,2273774601,2298003428,2286995218,2170375040,2237245193,2255053138,2230311350,2158571885,2755,-3,9,35942
1345309993,5804,36.7799987792968750,24.2506999969482420,36.4730987548828100,258.8111877441406000,-48.7079582214355500,24.2320194244384770,27.0927600860595700,58,129,103,87,61,13819,2321977298,2359235657,2350811684,2185075163,2273322880,2299847771,2267222948,2164476269,2875,-3,9,62098
1345310073,5808,34.5400009155273440,24.4419994354248050,36.4724998474121100,259.1527099609375000,-54.5304412841796900,24.4132194519042970,27.0083808898925780,59,129,106,89,61,13829,2310546194,2341745243,2331838793,2184261412,2267375378,2288422601,2255588818,2163511488,2759,-1,8,51590
1345310430,5806,32.8800010681152340,25.3542995452880860,36.3785018920898440,255.7722015380859400,-78.0906982421875000,25.1489295959472660,26.8616104125976560,57,127,107,87,62,13815,2348735652,2387216466,2377280402,2197175588,2307797522,2331644525,2285287798,2168590546,3107,-1,8,44988
1345310761,5806,30.7000007629394530,25.7292003631591800,36.3614006042480500,254.7745971679687500,-94.3631973266601600,25.6595306396484380,26.7061691284179700,57,126,106,88,58,13831,2374298806,2417411218,2408324699,2210390774,2342066742,2368947072,2313038025,2173457627,3120,-1,8,21960
1345310830,5803,28.7999992370605470,25.8600997924804700,36.3554992675781250,253.9808044433593800,-98.0650100708007800,25.7759895324707030,26.6942100524902340,56,125,107,89,58,13825,2386109897,2430157330,2421642386,2218746742,2357088777,2383570368,2323174171,2176551661,3368,-1,9,12703
1345310923,5806,26.9099998474121100,25.8868007659912100,36.3530998229980500,253.6609954833984400,-100.3523025512695300,25.8479900360107420,26.6798191070556640,56,124,105,88,58,13825,2406963757,2455723126,2448940864,2231273014,2365455305,2392812928,2330641920,2179310985,3093,-2,8,54467
